Time,TemperatureF,DewpointF,PressureIn,WindDirection,WindDirectionDegrees,WindSpeedMPH,WindSpeedGustMPH,Humidity,HourlyPrecipIn,Conditions,Clouds,dailyrainin,SolarRadiationWatts/m^2,SoftwareType,DateUTC
2013-10-01 00:02:00,54.6,48.9,29.85,SSW,194,0.0,0.0,81,0.00,CLR,,0.00,0.0,WeatherDisplay:10.37,2013-10-01 05:02:00,
2013-10-01 00:07:00,54.5,48.8,29.85,SSW,194,0.0,0.0,81,0.00,CLR,,0.00,0.0,WeatherDisplay:10.37,2013-10-01 05:07:00,
2013-10-01 00:12:00,54.5,49.1,29.85,SSW,194,0.0,0.0,82,0.00,CLR,,0.00,0.0,WeatherDisplay:10.37,2013-10-01 05:12:00,
2013-10-01 00:17:00,54.5,49.1,29.85,SSW,194,0.0,0.0,82,0.00,CLR,,0.00,0.0,WeatherDisplay:10.37,2013-10-01 05:17:00,
2013-10-01 00:22:00,54.5,49.4,29.86,SSW,194,0.0,0.0,83,0.00,CLR,,0.00,0.0,WeatherDisplay:10.37,2013-10-01 05:22:00,
2013-10-01 00:27:00,54.5,49.4,29.86,SSW,194,0.0,0.0,83,0.00,CLR,,0.00,0.0,WeatherDisplay:10.37,2013-10-01 05:27:00,
2013-10-01 00:32:00,54.4,49.3,29.86,SSW,194,0.0,0.0,83,0.00,CLR,,0.00,0.0,WeatherDisplay:10.37,2013-10-01 05:32:00,
2013-10-01 00:37:00,54.4,49.3,29.86,SSW,194,0.0,0.0,83,0.00,CLR,,0.00,0.0,WeatherDisplay:10.37,2013-10-01 05:37:00,
2013-10-01 00:42:00,54.4,49.3,29.86,SSW,194,0.0,0.0,83,0.00,CLR,,0.00,0.0,WeatherDisplay:10.37,2013-10-01 05:42:00,
2013-10-01 00:47:00,54.4,49.7,29.86,NW,304,0.0,0.0,84,0.00,CLR,,0.00,0.0,WeatherDisplay:10.37,2013-10-01 05:47:00,
2013-10-01 00:52:00,54.5,49.8,29.86,SW,217,0.0,0.0,84,0.00,CLR,,0.00,0.0,WeatherDisplay:10.37,2013-10-01 05:52:00,
2013-10-01 00:57:00,54.5,49.8,29.86,SW,217,0.0,0.0,84,0.00,CLR,,0.00,0.0,WeatherDisplay:10.37,2013-10-01 05:57:00,
2013-10-01 01:02:00,54.5,49.8,29.86,SW,217,0.0,0.0,84,0.00,CLR,,0.00,0.0,WeatherDisplay:10.37,2013-10-01 06:02:00,
2013-10-01 01:07:00,54.5,49.8,29.86,SW,217,0.0,0.0,84,0.00,CLR,,0.00,0.0,WeatherDisplay:10.37,2013-10-01 06:07:00,
2013-10-01 01:12:00,54.5,49.8,29.86,SW,217,1.2,0.0,84,0.00,CLR,,0.00,0.0,WeatherDisplay:10.37,2013-10-01 06:12:00,
2013-10-01 01:17:00,54.4,49.7,29.86,SW,217,0.0,0.0,84,0.00,CLR,,0.00,0.0,WeatherDisplay:10.37,2013-10-01 06:17:00,
2013-10-01 01:22:00,54.3,49.9,29.86,SW,217,1.2,0.0,85,0.00,CLR,,0.00,0.0,WeatherDisplay:10.37,2013-10-01 06:22:00,
2013-10-01 01:27:00,54.2,49.8,29.86,SW,217,0.0,0.0,85,0.00,CLR,,0.00,0.0,WeatherDisplay:10.37,2013-10-01 06:27:00,
2013-10-01 01:32:00,54.2,49.8,29.86,SW,217,0.0,0.0,85,0.00,CLR,,0.00,0.0,WeatherDisplay:10.37,2013-10-01 06:32:00,
2013-10-01 01:37:00,54.2,50.1,29.86,SW,217,0.0,0.0,86,0.00,CLR,,0.00,0.0,WeatherDisplay:10.37,2013-10-01 06:37:00,
2013-10-01 01:42:00,54.2,50.1,29.86,SW,217,0.0,0.0,86,0.00,CLR,,0.00,0.0,WeatherDisplay:10.37,2013-10-01 06:42:00,
2013-10-01 01:47:00,54.3,50.2,29.86,SW,217,0.0,0.0,86,0.00,CLR,,0.00,0.0,WeatherDisplay:10.37,2013-10-01 06:47:00,
2013-10-01 01:52:00,54.5,50.7,29.87,SW,217,1.2,0.0,87,0.00,CLR,,0.00,0.0,WeatherDisplay:10.37,2013-10-01 06:52:00,
2013-10-01 01:57:00,54.9,51.1,29.87,SW,217,0.0,0.0,87,0.00,CLR,,0.00,0.0,WeatherDisplay:10.37,2013-10-01 06:57:00,
2013-10-01 02:03:00,55.1,51.6,29.86,SW,217,0.0,0.0,88,0.00,CLR,,0.00,0.0,WeatherDisplay:10.37,2013-10-01 07:03:00,
2013-10-01 02:08:00,55.4,51.9,29.87,SW,229,1.2,0.0,88,0.00,CLR,,0.00,0.0,WeatherDisplay:10.37,2013-10-01 07:08:00,
2013-10-01 02:13:00,55.8,52.3,29.86,SW,229,0.0,0.0,88,0.00,CLR,,0.00,0.0,WeatherDisplay:10.37,2013-10-01 07:13:00,
2013-10-01 02:18:00,56.2,53.0,29.86,SW,233,4.6,4.6,89,0.00,CLR,,0.00,0.0,WeatherDisplay:10.37,2013-10-01 07:18:00,
2013-10-01 02:23:00,56.7,53.5,29.86,WSW,242,2.3,2.3,89,0.00,CLR,,0.00,0.0,WeatherDisplay:10.37,2013-10-01 07:23:00,
2013-10-01 02:28:00,57.3,54.1,29.86,WNW,290,1.2,0.0,89,0.00,CLR,,0.00,0.0,WeatherDisplay:10.37,2013-10-01 07:28:00,
2013-10-01 02:33:00,57.6,54.4,29.86,West,281,1.2,0.0,89,0.00,CLR,,0.00,0.0,WeatherDisplay:10.37,2013-10-01 07:33:00,
2013-10-01 02:38:00,57.9,54.7,29.86,West,279,0.0,0.0,89,0.00,CLR,,0.00,0.0,WeatherDisplay:10.37,2013-10-01 07:38:00,
2013-10-01 02:43:00,58.1,54.9,29.85,South,177,1.2,1.2,89,0.00,CLR,,0.00,0.0,WeatherDisplay:10.37,2013-10-01 07:43:00,
2013-10-01 02:49:00,58.3,55.1,29.85,West,276,6.9,6.9,89,0.00,CLR,,0.00,0.0,WeatherDisplay:10.37,2013-10-01 07:49:00,
2013-10-01 02:54:00,58.5,55.3,29.85,West,265,0.0,0.0,89,0.00,CLR,,0.00,0.0,WeatherDisplay:10.37,2013-10-01 07:54:00,
2013-10-01 02:59:00,58.6,55.4,29.85,WNW,299,0.0,0.0,89,0.00,CLR,,0.00,0.0,WeatherDisplay:10.37,2013-10-01 07:59:00,
2013-10-01 03:04:00,58.7,55.5,29.85,SSW,198,6.9,6.9,89,0.00,CLR,,0.00,0.0,WeatherDisplay:10.37,2013-10-01 08:04:00,
2013-10-01 03:09:00,58.6,55.1,29.85,SW,234,1.2,0.0,88,0.00,CLR,,0.00,0.0,WeatherDisplay:10.37,2013-10-01 08:09:00,
2013-10-01 03:14:00,58.5,55.0,29.85,West,275,1.2,1.2,88,0.00,CLR,,0.00,0.0,WeatherDisplay:10.37,2013-10-01 08:14:00,
2013-10-01 03:19:00,58.2,54.7,29.85,SSW,209,0.0,0.0,88,0.00,CLR,,0.00,0.0,WeatherDisplay:10.37,2013-10-01 08:19:00,
2013-10-01 03:24:00,58.0,54.5,29.85,SW,230,0.0,0.0,88,0.00,CLR,,0.00,0.0,WeatherDisplay:10.37,2013-10-01 08:24:00,
2013-10-01 03:29:00,57.8,54.3,29.85,SSW,192,0.0,0.0,88,0.00,CLR,,0.00,0.0,WeatherDisplay:10.37,2013-10-01 08:29:00,
2013-10-01 03:34:00,57.6,54.4,29.86,WSW,250,0.0,0.0,89,0.00,CLR,,0.00,0.0,WeatherDisplay:10.37,2013-10-01 08:34:00,
2013-10-01 03:39:00,57.4,54.2,29.85,SSW,196,3.5,3.5,89,0.00,CLR,,0.00,0.0,WeatherDisplay:10.37,2013-10-01 08:39:00,
2013-10-01 03:44:00,57.2,54.0,29.85,SSW,196,1.2,0.0,89,0.00,CLR,,0.00,0.0,WeatherDisplay:10.37,2013-10-01 08:44:00,
2013-10-01 03:49:00,57.1,53.9,29.86,WSW,249,0.0,0.0,89,0.00,CLR,,0.00,0.0,WeatherDisplay:10.37,2013-10-01 08:49:00,
2013-10-01 03:54:00,57.0,54.1,29.86,West,260,0.0,0.0,90,0.00,CLR,,0.00,0.0,WeatherDisplay:10.37,2013-10-01 08:54:00,
2013-10-01 04:00:00,56.9,54.0,29.85,SE,137,0.0,0.0,90,0.00,CLR,,0.00,0.0,WeatherDisplay:10.37,2013-10-01 09:00:00,
2013-10-01 04:05:00,56.7,53.8,29.86,South,173,0.0,0.0,90,0.00,CLR,,0.00,0.0,WeatherDisplay:10.37,2013-10-01 09:05:00,
2013-10-01 04:10:00,56.6,53.7,29.86,South,173,0.0,0.0,90,0.00,CLR,,0.00,0.0,WeatherDisplay:10.37,2013-10-01 09:10:00,
2013-10-01 04:15:00,56.5,53.9,29.85,South,173,1.2,0.0,91,0.00,CLR,,0.00,0.0,WeatherDisplay:10.37,2013-10-01 09:15:00,
2013-10-01 04:20:00,56.5,53.9,29.85,WNW,284,3.5,3.5,91,0.00,CLR,,0.00,0.0,WeatherDisplay:10.37,2013-10-01 09:20:00,
2013-10-01 04:25:00,56.6,54.0,29.85,WNW,284,0.0,0.0,91,0.00,CLR,,0.00,0.0,WeatherDisplay:10.37,2013-10-01 09:25:00,
2013-10-01 04:30:00,56.6,54.3,29.85,SSE,157,0.0,0.0,92,0.00,CLR,,0.00,0.0,WeatherDisplay:10.37,2013-10-01 09:30:00,
2013-10-01 04:35:00,56.5,54.2,29.85,ESE,120,0.0,0.0,92,0.00,CLR,,0.00,0.0,WeatherDisplay:10.37,2013-10-01 09:35:00,
2013-10-01 04:40:00,56.6,54.3,29.85,WSW,240,0.0,0.0,92,0.00,CLR,,0.00,0.0,WeatherDisplay:10.37,2013-10-01 09:40:00,
2013-10-01 04:45:00,56.6,54.3,29.85,WSW,240,0.0,0.0,92,0.00,CLR,,0.00,0.0,WeatherDisplay:10.37,2013-10-01 09:45:00,
2013-10-01 04:50:00,56.6,54.3,29.85,WSW,240,0.0,0.0,92,0.00,CLR,,0.00,0.0,WeatherDisplay:10.37,2013-10-01 09:50:00,
2013-10-01 04:55:00,56.7,54.4,29.85,WSW,240,0.0,0.0,92,0.00,CLR,,0.00,0.0,WeatherDisplay:10.37,2013-10-01 09:55:00,
2013-10-01 05:00:00,56.9,54.9,29.85,WNW,295,1.2,0.0,93,0.00,CLR,,0.00,0.0,WeatherDisplay:10.37,2013-10-01 10:00:00,
2013-10-01 05:05:00,56.9,54.9,29.86,WNW,287,0.0,0.0,93,0.00,CLR,,0.00,0.0,WeatherDisplay:10.37,2013-10-01 10:05:00,
2013-10-01 05:11:00,56.9,54.9,29.86,WNW,287,0.0,0.0,93,0.00,CLR,,0.00,0.0,WeatherDisplay:10.37,2013-10-01 10:11:00,
2013-10-01 05:16:00,57.0,55.0,29.86,WNW,287,0.0,0.0,93,0.00,CLR,,0.00,0.0,WeatherDisplay:10.37,2013-10-01 10:16:00,
2013-10-01 05:21:00,57.0,55.0,29.86,WNW,287,0.0,0.0,93,0.00,CLR,,0.00,0.0,WeatherDisplay:10.37,2013-10-01 10:21:00,
2013-10-01 05:26:00,56.9,54.9,29.86,WNW,287,0.0,0.0,93,0.00,CLR,,0.00,0.0,WeatherDisplay:10.37,2013-10-01 10:26:00,
2013-10-01 05:31:00,56.9,54.9,29.86,WNW,296,3.5,0.0,93,0.00,CLR,,0.00,0.0,WeatherDisplay:10.37,2013-10-01 10:31:00,
2013-10-01 05:36:00,56.9,54.9,29.86,NW,305,0.0,0.0,93,0.00,CLR,,0.00,0.0,WeatherDisplay:10.37,2013-10-01 10:36:00,
2013-10-01 05:41:00,56.9,54.9,29.86,SW,224,0.0,0.1,93,0.00,CLR,,0.00,0.0,WeatherDisplay:10.37,2013-10-01 10:41:00,
2013-10-01 05:46:00,57.0,55.0,29.86,West,265,1.2,0.0,93,0.00,CLR,,0.00,0.0,WeatherDisplay:10.37,2013-10-01 10:46:00,
2013-10-01 05:51:00,57.0,55.0,29.86,SSW,207,1.2,0.0,93,0.00,CLR,,0.00,0.0,WeatherDisplay:10.37,2013-10-01 10:51:00,
2013-10-01 05:56:00,57.0,55.3,29.86,SSW,207,1.2,0.0,94,0.00,CLR,,0.00,0.0,WeatherDisplay:10.37,2013-10-01 10:56:00,
2013-10-01 06:02:00,57.1,55.4,29.86,SW,233,0.0,0.0,94,0.00,CLR,,0.00,0.0,WeatherDisplay:10.37,2013-10-01 11:02:00,
2013-10-01 06:07:00,57.3,55.6,29.86,SSW,204,3.5,3.5,94,0.00,CLR,,0.00,0.0,WeatherDisplay:10.37,2013-10-01 11:07:00,
2013-10-01 06:12:00,57.4,55.7,29.86,NW,306,1.2,1.2,94,0.00,CLR,,0.00,0.0,WeatherDisplay:10.37,2013-10-01 11:12:00,
2013-10-01 06:17:00,57.6,55.9,29.86,WSW,238,0.0,0.6,94,0.00,CLR,,0.00,0.0,WeatherDisplay:10.37,2013-10-01 11:17:00,
2013-10-01 06:22:00,57.6,55.9,29.86,WSW,240,1.2,1.2,94,0.00,OVC,,0.00,0.0,WeatherDisplay:10.37,2013-10-01 11:22:00,
2013-10-01 06:27:00,57.6,55.9,29.86,WSW,252,0.0,0.0,94,0.00,OVC,,0.00,0.0,WeatherDisplay:10.37,2013-10-01 11:27:00,
2013-10-01 06:32:00,57.7,56.0,29.86,WSW,249,0.0,0.6,94,0.00,OVC,,0.00,0.0,WeatherDisplay:10.37,2013-10-01 11:32:00,
2013-10-01 06:37:00,57.7,56.0,29.86,SW,222,3.5,0.0,94,0.00,OVC,,0.00,0.0,WeatherDisplay:10.37,2013-10-01 11:37:00,
2013-10-01 06:42:00,57.8,56.1,29.86,WNW,300,5.0,5.0,94,0.00,OVC,,0.00,0.0,WeatherDisplay:10.37,2013-10-01 11:42:00,
2013-10-01 06:48:00,57.9,56.2,29.86,West,262,0.0,0.0,94,0.00,OVC,,0.00,0.0,WeatherDisplay:10.37,2013-10-01 11:48:00,
2013-10-01 06:53:00,57.9,56.2,29.86,WSW,244,0.0,0.0,94,0.00,OVC,,0.00,0.0,WeatherDisplay:10.37,2013-10-01 11:53:00,
2013-10-01 06:58:00,57.8,56.1,29.87,WSW,242,0.0,0.0,94,0.00,OVC,,0.00,5.0,WeatherDisplay:10.37,2013-10-01 11:58:00,
2013-10-01 07:03:00,57.9,56.2,29.87,SW,231,0.0,0.0,94,0.00,BKN,,0.00,5.0,WeatherDisplay:10.37,2013-10-01 12:03:00,
2013-10-01 07:08:00,57.9,56.2,29.87,SSW,212,1.2,0.0,94,0.00,BKN,,0.00,7.0,WeatherDisplay:10.37,2013-10-01 12:08:00,
2013-10-01 07:13:00,58.0,56.3,29.87,West,263,1.2,1.2,94,0.00,BKN,,0.00,9.0,WeatherDisplay:10.37,2013-10-01 12:13:00,
2013-10-01 07:18:00,58.0,56.3,29.87,West,263,1.2,0.0,94,0.00,BKN,,0.00,11.0,WeatherDisplay:10.37,2013-10-01 12:18:00,
2013-10-01 07:23:00,58.2,56.8,29.87,South,169,2.3,2.3,95,0.00,BKN,,0.00,12.0,WeatherDisplay:10.37,2013-10-01 12:23:00,
2013-10-01 07:29:00,58.3,56.9,29.86,WNW,297,1.2,0.0,95,0.00,BKN,,0.00,14.0,WeatherDisplay:10.37,2013-10-01 12:29:00,
2013-10-01 07:34:00,58.5,56.8,29.87,South,191,0.0,0.0,94,0.00,BKN,,0.00,14.0,WeatherDisplay:10.37,2013-10-01 12:34:00,
2013-10-01 07:39:00,58.7,57.3,29.87,SSW,192,1.2,0.0,95,0.00,BKN,,0.00,16.0,WeatherDisplay:10.37,2013-10-01 12:39:00,
2013-10-01 07:44:00,58.9,57.5,29.87,SSW,198,3.0,3.0,95,0.00,BKN,,0.00,18.0,WeatherDisplay:10.37,2013-10-01 12:44:00,
2013-10-01 07:49:00,59.1,57.7,29.87,SSW,202,2.3,0.0,95,0.00,BKN,,0.00,18.0,WeatherDisplay:10.37,2013-10-01 12:49:00,
2013-10-01 07:54:00,59.2,57.8,29.87,South,179,0.0,0.2,95,0.00,BKN,,0.00,19.0,WeatherDisplay:10.37,2013-10-01 12:54:00,
2013-10-01 07:59:00,59.6,58.2,29.87,ENE,75,4.6,4.6,95,0.00,BKN,,0.00,23.0,WeatherDisplay:10.37,2013-10-01 12:59:00,
2013-10-01 08:05:00,59.9,58.5,29.87,SSW,202,3.5,0.0,95,0.00,BKN,,0.00,21.0,WeatherDisplay:10.37,2013-10-01 13:05:00,
2013-10-01 08:10:00,60.1,58.7,29.87,South,175,2.0,10.0,95,0.00,BKN,,0.00,21.0,WeatherDisplay:10.37,2013-10-01 13:10:00,
2013-10-01 08:15:00,60.4,59.0,29.87,SW,223,11.5,11.5,95,0.00,BKN,,0.00,23.0,WeatherDisplay:10.37,2013-10-01 13:15:00,
2013-10-01 08:20:00,60.7,59.3,29.86,South,172,4.6,4.6,95,0.00,BKN,,0.00,25.0,WeatherDisplay:10.37,2013-10-01 13:20:00,
2013-10-01 08:25:00,60.9,59.5,29.87,SSW,198,11.5,11.5,95,0.00,BKN,,0.00,26.0,WeatherDisplay:10.37,2013-10-01 13:25:00,
2013-10-01 08:30:00,61.2,59.8,29.87,WSW,246,1.0,0.0,95,0.00,BKN,,0.00,28.0,WeatherDisplay:10.37,2013-10-01 13:30:00,
2013-10-01 08:35:00,61.4,60.0,29.87,West,260,3.5,3.5,95,0.00,BKN,,0.00,30.0,WeatherDisplay:10.37,2013-10-01 13:35:00,
2013-10-01 08:40:00,61.6,59.9,29.87,SW,216,1.2,0.0,94,0.00,BKN,,0.00,33.0,WeatherDisplay:10.37,2013-10-01 13:40:00,
2013-10-01 08:45:00,62.0,60.3,29.88,WSW,238,4.6,4.6,94,0.00,BKN,,0.00,35.0,WeatherDisplay:10.37,2013-10-01 13:45:00,
2013-10-01 08:50:00,62.3,60.6,29.87,SSE,148,2.0,2.0,94,0.00,BKN,,0.00,44.0,WeatherDisplay:10.37,2013-10-01 13:50:00,
2013-10-01 08:55:00,62.5,60.7,29.87,North,2,5.8,5.8,94,0.00,BKN,,0.00,51.0,WeatherDisplay:10.37,2013-10-01 13:55:00,
2013-10-01 09:00:00,62.8,60.7,29.87,South,187,2.0,2.0,93,0.00,BKN,,0.00,47.0,WeatherDisplay:10.37,2013-10-01 14:00:00,
2013-10-01 09:05:00,63.1,61.0,29.87,ESE,113,1.2,1.2,93,0.00,BKN,,0.00,88.0,WeatherDisplay:10.37,2013-10-01 14:05:00,
2013-10-01 09:10:00,63.4,61.3,29.86,West,262,9.2,9.2,93,0.00,BKN,,0.00,58.0,WeatherDisplay:10.37,2013-10-01 14:10:00,
2013-10-01 09:16:00,63.7,61.3,29.87,WSW,241,2.3,2.3,92,0.00,BKN,,0.00,53.0,WeatherDisplay:10.37,2013-10-01 14:16:00,
2013-10-01 09:21:00,64.0,61.6,29.86,WNW,288,0.0,0.0,92,0.00,BKN,,0.00,56.0,WeatherDisplay:10.37,2013-10-01 14:21:00,
2013-10-01 09:26:00,64.2,61.5,29.86,ESE,111,3.5,3.5,91,0.00,BKN,,0.00,56.0,WeatherDisplay:10.37,2013-10-01 14:26:00,
2013-10-01 09:31:00,64.5,61.5,29.86,SSW,207,4.0,4.0,90,0.00,BKN,,0.00,65.0,WeatherDisplay:10.37,2013-10-01 14:31:00,
2013-10-01 09:36:00,64.8,61.8,29.86,NW,305,3.5,3.5,90,0.00,BKN,,0.00,60.0,WeatherDisplay:10.37,2013-10-01 14:36:00,
2013-10-01 09:41:00,65.1,61.8,29.86,NW,319,5.8,5.8,89,0.00,BKN,,0.00,77.0,WeatherDisplay:10.37,2013-10-01 14:41:00,
2013-10-01 09:46:00,65.5,62.2,29.86,NE,36,2.3,2.3,89,0.00,BKN,,0.00,70.0,WeatherDisplay:10.37,2013-10-01 14:46:00,
2013-10-01 09:51:00,65.7,62.0,29.86,South,182,1.2,1.2,88,0.00,BKN,,0.00,132.0,WeatherDisplay:10.37,2013-10-01 14:51:00,
2013-10-01 09:56:00,66.2,62.5,29.86,WSW,258,3.5,3.5,88,0.00,BKN,,0.00,79.0,WeatherDisplay:10.37,2013-10-01 14:56:00,
2013-10-01 10:01:00,66.6,62.9,29.86,NE,46,4.6,4.6,88,0.00,BKN,,0.00,445.0,WeatherDisplay:10.37,2013-10-01 15:01:00,
2013-10-01 10:06:00,67.2,63.2,29.86,West,272,0.0,0.0,87,0.00,FEW,,0.00,327.0,WeatherDisplay:10.37,2013-10-01 15:06:00,
2013-10-01 10:11:00,67.9,63.6,29.85,SE,146,3.5,3.5,86,0.00,FEW,,0.00,366.0,WeatherDisplay:10.37,2013-10-01 15:11:00,
2013-10-01 10:16:00,68.2,63.5,29.85,South,191,3.5,3.5,85,0.00,SCT,,0.00,290.0,WeatherDisplay:10.37,2013-10-01 15:16:00,
2013-10-01 10:21:00,68.5,63.1,29.85,SSW,203,11.5,11.5,83,0.00,BKN,,0.00,76.0,WeatherDisplay:10.37,2013-10-01 15:21:00,
2013-10-01 10:26:00,68.9,63.2,29.85,SSW,203,11.5,11.5,82,0.00,BKN,,0.00,81.0,WeatherDisplay:10.37,2013-10-01 15:26:00,
2013-10-01 10:31:00,69.3,62.9,29.85,SSW,209,9.2,9.2,80,0.00,BKN,,0.00,554.0,WeatherDisplay:10.37,2013-10-01 15:31:00,
2013-10-01 10:37:00,69.8,63.3,29.85,SSW,209,6.0,6.0,80,0.00,SCT,,0.00,568.0,WeatherDisplay:10.37,2013-10-01 15:37:00,
2013-10-01 10:42:00,70.2,63.0,29.85,WSW,251,3.5,3.5,78,0.00,CLR,,0.00,577.0,WeatherDisplay:10.37,2013-10-01 15:42:00,
2013-10-01 10:47:00,70.5,62.9,29.84,NW,325,7.0,7.0,77,0.00,CLR,,0.00,587.0,WeatherDisplay:10.37,2013-10-01 15:47:00,
2013-10-01 10:52:00,70.5,62.6,29.84,SSE,157,11.5,11.5,76,0.00,CLR,,0.00,378.0,WeatherDisplay:10.37,2013-10-01 15:52:00,
2013-10-01 10:57:00,70.5,62.6,29.84,West,267,9.0,9.0,76,0.00,SCT,,0.00,172.0,WeatherDisplay:10.37,2013-10-01 15:57:00,
2013-10-01 11:02:00,70.6,62.7,29.84,West,273,10.4,10.4,76,0.00,BKN,,0.00,125.0,WeatherDisplay:10.37,2013-10-01 16:02:00,
2013-10-01 11:07:00,70.7,62.8,29.85,WNW,285,5.8,5.8,76,0.00,BKN,,0.00,81.0,WeatherDisplay:10.37,2013-10-01 16:07:00,
2013-10-01 11:12:00,71.1,63.1,29.85,South,176,8.1,8.1,76,0.00,BKN,,0.00,88.0,WeatherDisplay:10.37,2013-10-01 16:12:00,
2013-10-01 11:17:00,71.4,63.1,29.85,WNW,285,5.8,5.8,75,0.00,BKN,,0.00,111.0,WeatherDisplay:10.37,2013-10-01 16:17:00,
2013-10-01 11:22:00,71.5,62.8,29.85,SSW,198,5.8,5.8,74,0.00,BKN,,0.00,160.0,WeatherDisplay:10.37,2013-10-01 16:22:00,
2013-10-01 11:27:00,72.0,63.6,29.85,SW,229,11.5,11.5,75,0.00,BKN,,0.00,643.0,WeatherDisplay:10.37,2013-10-01 16:27:00,
2013-10-01 11:31:00,72.5,64.1,29.85,SE,144,4.6,4.6,75,0.00,SCT,,0.00,650.0,WeatherDisplay:10.37,2013-10-01 16:31:00,
2013-10-01 11:36:00,73.2,64.0,29.85,SSE,165,4.6,4.6,73,0.00,CLR,,0.00,664.0,WeatherDisplay:10.37,2013-10-01 16:36:00,
2013-10-01 11:41:00,73.3,63.3,29.84,West,263,9.2,9.2,71,0.00,CLR,,0.00,668.0,WeatherDisplay:10.37,2013-10-01 16:41:00,
2013-10-01 11:47:00,73.5,63.9,29.84,North,358,5.8,5.8,72,0.00,CLR,,0.00,668.0,WeatherDisplay:10.37,2013-10-01 16:47:00,
2013-10-01 11:52:00,74.0,63.2,29.84,SSW,202,11.5,11.5,69,0.00,CLR,,0.00,684.0,WeatherDisplay:10.37,2013-10-01 16:52:00,
2013-10-01 11:57:00,74.0,63.6,29.83,SW,227,3.5,3.5,70,0.00,CLR,,0.00,687.0,WeatherDisplay:10.37,2013-10-01 16:57:00,
2013-10-01 12:02:00,74.2,63.4,29.83,SSW,211,10.4,10.4,69,0.00,CLR,,0.00,694.0,WeatherDisplay:10.37,2013-10-01 17:02:00,
2013-10-01 12:07:00,74.4,63.1,29.83,WNW,301,9.2,9.2,68,0.00,CLR,,0.00,696.0,WeatherDisplay:10.37,2013-10-01 17:07:00,
2013-10-01 12:12:00,74.7,63.9,29.83,WNW,290,6.0,6.0,69,0.00,CLR,,0.00,694.0,WeatherDisplay:10.37,2013-10-01 17:12:00,
2013-10-01 12:17:00,75.1,64.2,29.82,SW,225,5.8,5.8,69,0.00,CLR,,0.00,701.0,WeatherDisplay:10.37,2013-10-01 17:17:00,
2013-10-01 12:22:00,75.1,63.8,29.83,WSW,242,12.7,12.7,68,0.00,FEW,,0.00,86.0,WeatherDisplay:10.37,2013-10-01 17:22:00,
2013-10-01 12:27:00,74.9,63.6,29.82,West,269,9.2,9.2,68,0.00,BKN,,0.00,153.0,WeatherDisplay:10.37,2013-10-01 17:27:00,
2013-10-01 12:32:00,75.2,63.5,29.82,WNW,302,9.2,9.2,67,0.00,BKN,,0.00,708.0,WeatherDisplay:10.37,2013-10-01 17:32:00,
2013-10-01 12:37:00,75.7,63.5,29.83,SW,214,6.9,6.9,66,0.00,FEW,,0.00,705.0,WeatherDisplay:10.37,2013-10-01 17:37:00,
2013-10-01 12:42:00,76.2,64.4,29.83,WSW,251,4.6,4.6,67,0.00,CLR,,0.00,707.0,WeatherDisplay:10.37,2013-10-01 17:42:00,
2013-10-01 12:47:00,76.7,64.0,29.83,WSW,237,13.8,13.8,65,0.00,CLR,,0.00,710.0,WeatherDisplay:10.37,2013-10-01 17:47:00,
2013-10-01 12:52:00,76.6,65.2,29.83,West,271,3.5,3.5,68,0.00,CLR,,0.00,714.0,WeatherDisplay:10.37,2013-10-01 17:52:00,
2013-10-01 12:57:00,76.5,63.4,29.83,WSW,245,12.7,12.7,64,0.00,CLR,,0.00,708.0,WeatherDisplay:10.37,2013-10-01 17:57:00,
2013-10-01 13:02:00,77.1,64.0,29.83,WSW,238,10.4,10.4,64,0.00,CLR,,0.00,696.0,WeatherDisplay:10.37,2013-10-01 18:02:00,
2013-10-01 13:07:00,77.5,63.9,29.83,SSW,207,9.2,9.2,63,0.00,CLR,,0.00,705.0,WeatherDisplay:10.37,2013-10-01 18:07:00,
2013-10-01 13:12:00,77.7,64.1,29.83,WSW,252,6.9,6.9,63,0.00,CLR,,0.00,696.0,WeatherDisplay:10.37,2013-10-01 18:12:00,
2013-10-01 13:17:00,77.9,64.7,29.82,West,277,7.0,7.0,64,0.00,CLR,,0.00,708.0,WeatherDisplay:10.37,2013-10-01 18:17:00,
2013-10-01 13:22:00,78.0,64.4,29.82,West,267,9.2,9.2,63,0.00,CLR,,0.00,694.0,WeatherDisplay:10.37,2013-10-01 18:22:00,
2013-10-01 13:27:00,78.0,63.9,29.82,SW,229,10.4,10.4,62,0.00,CLR,,0.00,708.0,WeatherDisplay:10.37,2013-10-01 18:27:00,
2013-10-01 13:33:00,78.5,64.4,29.82,SSW,209,5.8,5.8,62,0.00,CLR,,0.00,694.0,WeatherDisplay:10.37,2013-10-01 18:33:00,
2013-10-01 13:38:00,78.3,64.7,29.82,North,357,9.2,9.2,63,0.00,CLR,,0.00,691.0,WeatherDisplay:10.37,2013-10-01 18:38:00,
2013-10-01 13:44:00,78.4,63.8,29.82,NNW,348,12.7,12.7,61,0.00,CLR,,0.00,682.0,WeatherDisplay:10.37,2013-10-01 18:44:00,
2013-10-01 13:49:00,78.8,65.1,29.82,WNW,294,9.2,9.2,63,0.00,CLR,,0.00,673.0,WeatherDisplay:10.37,2013-10-01 18:49:00,
2013-10-01 13:54:00,78.8,64.7,29.82,WSW,247,5.8,5.8,62,0.00,CLR,,0.00,670.0,WeatherDisplay:10.37,2013-10-01 18:54:00,
2013-10-01 13:59:00,79.1,65.0,29.82,West,263,4.6,4.6,62,0.00,CLR,,0.00,666.0,WeatherDisplay:10.37,2013-10-01 18:59:00,
2013-10-01 14:04:00,79.2,64.6,29.82,WNW,295,5.8,5.8,61,0.00,CLR,,0.00,657.0,WeatherDisplay:10.37,2013-10-01 19:04:00,
2013-10-01 14:09:00,79.2,65.5,29.82,West,263,6.9,6.9,63,0.00,CLR,,0.00,657.0,WeatherDisplay:10.37,2013-10-01 19:09:00,
2013-10-01 14:14:00,79.4,64.3,29.82,ESE,109,4.6,4.6,60,0.00,CLR,,0.00,654.0,WeatherDisplay:10.37,2013-10-01 19:14:00,
2013-10-01 14:19:00,79.8,66.1,29.82,SSW,196,2.3,2.3,63,0.00,CLR,,0.00,635.0,WeatherDisplay:10.37,2013-10-01 19:19:00,
2013-10-01 14:24:00,79.9,64.3,29.82,SSW,209,6.9,6.9,59,0.00,CLR,,0.00,642.0,WeatherDisplay:10.37,2013-10-01 19:24:00,
2013-10-01 14:29:00,80.0,64.9,29.82,WSW,248,4.6,4.6,60,0.00,CLR,,0.00,635.0,WeatherDisplay:10.37,2013-10-01 19:29:00,
2013-10-01 14:34:00,80.3,65.6,29.82,WSW,253,5.8,5.8,61,0.00,CLR,,0.00,621.0,WeatherDisplay:10.37,2013-10-01 19:34:00,
2013-10-01 14:39:00,80.2,65.5,29.82,WSW,245,10.0,10.0,61,0.00,CLR,,0.00,608.0,WeatherDisplay:10.37,2013-10-01 19:39:00,
2013-10-01 14:44:00,80.2,65.5,29.82,South,188,6.0,6.0,61,0.00,CLR,,0.00,605.0,WeatherDisplay:10.37,2013-10-01 19:44:00,
2013-10-01 14:49:00,80.1,64.0,29.82,SSW,197,11.5,11.5,58,0.00,CLR,,0.00,587.0,WeatherDisplay:10.37,2013-10-01 19:49:00,
2013-10-01 14:54:00,80.3,65.1,29.82,SW,233,9.0,9.0,60,0.00,CLR,,0.00,580.0,WeatherDisplay:10.37,2013-10-01 19:54:00,
2013-10-01 14:59:00,80.3,64.7,29.82,WNW,299,11.5,11.5,59,0.00,CLR,,0.00,568.0,WeatherDisplay:10.37,2013-10-01 19:59:00,
2013-10-01 15:04:00,80.3,64.7,29.82,SW,214,8.1,8.1,59,0.00,CLR,,0.00,550.0,WeatherDisplay:10.37,2013-10-01 20:04:00,
2013-10-01 15:09:00,80.5,65.8,29.82,SW,216,3.5,3.5,61,0.00,CLR,,0.00,552.0,WeatherDisplay:10.37,2013-10-01 20:09:00,
2013-10-01 15:14:00,80.6,64.0,29.82,SW,223,10.4,10.4,57,0.00,CLR,,0.00,541.0,WeatherDisplay:10.37,2013-10-01 20:14:00,
2013-10-01 15:19:00,80.4,63.8,29.82,WSW,241,13.8,13.8,57,0.00,CLR,,0.00,531.0,WeatherDisplay:10.37,2013-10-01 20:19:00,
2013-10-01 15:24:00,80.2,64.1,29.82,SSW,209,6.9,6.9,58,0.00,CLR,,0.00,520.0,WeatherDisplay:10.37,2013-10-01 20:24:00,
2013-10-01 15:29:00,80.4,65.7,29.82,West,269,5.8,5.8,61,0.00,CLR,,0.00,512.0,WeatherDisplay:10.37,2013-10-01 20:29:00,
2013-10-01 15:34:00,80.7,64.5,29.82,NW,311,7.0,7.0,58,0.00,CLR,,0.00,496.0,WeatherDisplay:10.37,2013-10-01 20:34:00,
2013-10-01 15:40:00,80.5,64.4,29.82,West,266,6.0,10.0,58,0.00,CLR,,0.00,478.0,WeatherDisplay:10.37,2013-10-01 20:40:00,
2013-10-01 15:45:00,80.3,64.2,29.82,SW,235,5.0,5.0,58,0.00,CLR,,0.00,468.0,WeatherDisplay:10.37,2013-10-01 20:45:00,
2013-10-01 15:50:00,80.2,64.6,29.82,SW,220,9.2,9.2,59,0.00,CLR,,0.00,452.0,WeatherDisplay:10.37,2013-10-01 20:50:00,
2013-10-01 15:55:00,80.5,64.4,29.82,West,280,4.6,4.6,58,0.00,CLR,,0.00,434.0,WeatherDisplay:10.37,2013-10-01 20:55:00,
2013-10-01 16:00:00,80.9,65.7,29.82,WSW,258,5.8,5.8,60,0.00,CLR,,0.00,420.0,WeatherDisplay:10.37,2013-10-01 21:00:00,
2013-10-01 16:05:00,80.5,64.9,29.82,East,95,13.8,13.8,59,0.00,CLR,,0.00,408.0,WeatherDisplay:10.37,2013-10-01 21:05:00,
2013-10-01 16:10:00,80.4,65.7,29.82,SW,236,2.3,2.3,61,0.00,CLR,,0.00,388.0,WeatherDisplay:10.37,2013-10-01 21:10:00,
2013-10-01 16:15:00,80.3,64.7,29.82,WSW,237,8.1,8.1,59,0.00,CLR,,0.00,376.0,WeatherDisplay:10.37,2013-10-01 21:15:00,
2013-10-01 16:20:00,80.1,65.0,29.82,SW,223,5.0,5.0,60,0.00,CLR,,0.00,367.0,WeatherDisplay:10.37,2013-10-01 21:20:00,
2013-10-01 16:25:00,80.1,64.0,29.82,SSW,208,6.9,6.9,58,0.00,CLR,,0.00,350.0,WeatherDisplay:10.37,2013-10-01 21:25:00,
2013-10-01 16:30:00,80.2,64.6,29.82,WSW,256,9.2,9.2,59,0.00,CLR,,0.00,330.0,WeatherDisplay:10.37,2013-10-01 21:30:00,
2013-10-01 16:35:00,80.2,64.6,29.82,WNW,286,8.1,8.1,59,0.00,CLR,,0.00,320.0,WeatherDisplay:10.37,2013-10-01 21:35:00,
2013-10-01 16:40:00,80.0,64.4,29.82,SSW,207,10.4,10.4,59,0.00,CLR,,0.00,297.0,WeatherDisplay:10.37,2013-10-01 21:40:00,
2013-10-01 16:45:00,79.7,64.6,29.82,West,277,3.5,3.5,60,0.00,CLR,,0.00,288.0,WeatherDisplay:10.37,2013-10-01 21:45:00,
2013-10-01 16:50:00,79.7,64.1,29.83,West,268,10.4,10.4,59,0.00,CLR,,0.00,267.0,WeatherDisplay:10.37,2013-10-01 21:50:00,
2013-10-01 16:55:00,79.3,64.2,29.83,WSW,242,9.2,9.2,60,0.00,CLR,,0.00,116.0,WeatherDisplay:10.37,2013-10-01 21:55:00,
2013-10-01 17:00:00,78.8,64.2,29.83,WSW,240,5.8,5.8,61,0.00,SCT,,0.00,49.0,WeatherDisplay:10.37,2013-10-01 22:00:00,
2013-10-01 17:05:00,78.8,64.7,29.83,WSW,253,12.0,12.0,62,0.00,BKN,,0.00,46.0,WeatherDisplay:10.37,2013-10-01 22:05:00,
2013-10-01 17:10:00,78.4,63.8,29.83,WSW,251,4.6,4.6,61,0.00,BKN,,0.00,37.0,WeatherDisplay:10.37,2013-10-01 22:10:00,
2013-10-01 17:15:00,78.0,63.9,29.83,West,271,5.0,5.0,62,0.00,BKN,,0.00,33.0,WeatherDisplay:10.37,2013-10-01 22:15:00,
2013-10-01 17:20:00,77.6,64.0,29.83,WNW,285,3.5,3.5,63,0.00,BKN,,0.00,32.0,WeatherDisplay:10.37,2013-10-01 22:20:00,
2013-10-01 17:25:00,77.1,64.0,29.83,SSW,209,2.3,2.3,64,0.00,BKN,,0.00,30.0,WeatherDisplay:10.37,2013-10-01 22:25:00,
2013-10-01 17:30:00,76.9,63.3,29.83,SSW,202,9.2,9.2,63,0.00,BKN,,0.00,30.0,WeatherDisplay:10.37,2013-10-01 22:30:00,
2013-10-01 17:35:00,76.8,63.7,29.84,West,277,3.5,3.5,64,0.00,BKN,,0.00,28.0,WeatherDisplay:10.37,2013-10-01 22:35:00,
2013-10-01 17:40:00,76.6,64.0,29.84,West,281,5.0,5.0,65,0.00,BKN,,0.00,26.0,WeatherDisplay:10.37,2013-10-01 22:40:00,
2013-10-01 17:45:00,76.3,64.1,29.84,SW,217,9.2,0.0,66,0.00,BKN,,0.00,23.0,WeatherDisplay:10.37,2013-10-01 22:45:00,
2013-10-01 17:51:00,76.1,63.5,29.84,South,186,4.6,4.6,65,0.00,BKN,,0.00,21.0,WeatherDisplay:10.37,2013-10-01 22:51:00,
2013-10-01 17:56:00,76.1,64.3,29.84,West,260,1.2,1.2,67,0.00,BKN,,0.00,18.0,WeatherDisplay:10.37,2013-10-01 22:56:00,
2013-10-01 18:01:00,75.8,64.1,29.84,SW,226,3.5,3.5,67,0.00,BKN,,0.00,16.0,WeatherDisplay:10.37,2013-10-01 23:01:00,
2013-10-01 18:06:00,75.4,64.1,29.84,NW,309,1.2,1.2,68,0.00,BKN,,0.00,14.0,WeatherDisplay:10.37,2013-10-01 23:06:00,
2013-10-01 18:11:00,75.0,63.7,29.84,West,275,1.0,1.0,68,0.00,BKN,,0.00,12.0,WeatherDisplay:10.37,2013-10-01 23:11:00,
2013-10-01 18:16:00,74.7,63.9,29.84,SW,230,0.0,0.0,69,0.00,BKN,,0.00,9.0,WeatherDisplay:10.37,2013-10-01 23:16:00,
2013-10-01 18:20:00,74.3,63.9,29.85,SW,230,1.2,1.2,70,0.00,BKN,,0.00,9.0,WeatherDisplay:10.37,2013-10-01 23:20:00,
2013-10-01 18:25:00,74.0,64.0,29.85,SW,230,0.0,0.0,71,0.00,BKN,,0.00,7.0,WeatherDisplay:10.37,2013-10-01 23:25:00,
2013-10-01 18:30:00,73.6,64.0,29.85,SW,230,0.0,0.0,72,0.00,BKN,,0.00,5.0,WeatherDisplay:10.37,2013-10-01 23:30:00,
2013-10-01 18:35:00,73.3,63.7,29.85,SW,230,0.0,0.0,72,0.00,OVC,,0.00,0.0,WeatherDisplay:10.37,2013-10-01 23:35:00,
2013-10-01 18:40:00,72.9,63.7,29.85,SW,230,0.0,0.0,73,0.00,OVC,,0.00,0.0,WeatherDisplay:10.37,2013-10-01 23:40:00,
2013-10-01 18:45:00,72.6,63.8,29.86,SW,230,0.0,0.0,74,0.00,OVC,,0.00,0.0,WeatherDisplay:10.37,2013-10-01 23:45:00,
2013-10-01 18:50:00,72.3,63.5,29.86,SW,230,0.0,0.0,74,0.00,OVC,,0.00,0.0,WeatherDisplay:10.37,2013-10-01 23:50:00,
2013-10-01 18:55:00,71.9,63.5,29.86,SW,230,0.0,0.0,75,0.00,OVC,,0.00,0.0,WeatherDisplay:10.37,2013-10-01 23:55:00,
2013-10-01 19:00:00,71.5,63.5,29.86,SW,230,0.0,0.0,76,0.00,CLR,,0.00,0.0,WeatherDisplay:10.37,2013-10-02 00:00:00,
2013-10-01 19:05:00,71.1,63.5,29.86,SW,230,0.0,0.0,77,0.00,CLR,,0.00,0.0,WeatherDisplay:10.37,2013-10-02 00:05:00,
2013-10-01 19:10:00,70.7,63.1,29.86,SW,230,0.0,0.0,77,0.00,CLR,,0.00,0.0,WeatherDisplay:10.37,2013-10-02 00:10:00,
2013-10-01 19:15:00,70.4,63.2,29.87,SW,230,0.0,0.0,78,0.00,CLR,,0.00,0.0,WeatherDisplay:10.37,2013-10-02 00:15:00,
2013-10-01 19:18:00,70.2,63.4,29.87,SW,230,0.0,0.0,79,0.00,CLR,,0.00,0.0,WeatherDisplay:10.37,2013-10-02 00:18:00,
2013-10-01 19:23:00,69.8,63.0,29.87,SW,230,0.0,0.0,79,0.00,CLR,,0.00,0.0,WeatherDisplay:10.37,2013-10-02 00:23:00,
2013-10-01 19:28:00,69.5,63.1,29.87,SW,230,0.0,0.0,80,0.00,CLR,,0.00,0.0,WeatherDisplay:10.37,2013-10-02 00:28:00,
2013-10-01 19:33:00,69.3,62.9,29.87,SW,230,0.0,0.0,80,0.00,CLR,,0.00,0.0,WeatherDisplay:10.37,2013-10-02 00:33:00,
2013-10-01 19:38:00,69.0,62.6,29.87,SW,230,0.0,0.0,80,0.00,CLR,,0.00,0.0,WeatherDisplay:10.37,2013-10-02 00:38:00,
2013-10-01 19:43:00,68.7,62.6,29.88,SW,230,0.0,0.0,81,0.00,CLR,,0.00,0.0,WeatherDisplay:10.37,2013-10-02 00:43:00,
2013-10-01 19:48:00,68.3,62.6,29.88,SW,230,0.0,0.0,82,0.00,CLR,,0.00,0.0,WeatherDisplay:10.37,2013-10-02 00:48:00,
2013-10-01 19:53:00,68.0,62.3,29.88,SW,230,0.0,0.0,82,0.00,CLR,,0.00,0.0,WeatherDisplay:10.37,2013-10-02 00:53:00,
2013-10-01 19:58:00,67.7,62.0,29.88,SW,230,0.0,0.0,82,0.00,CLR,,0.00,0.0,WeatherDisplay:10.37,2013-10-02 00:58:00,
2013-10-01 20:03:00,67.5,62.2,29.88,SW,230,0.0,0.0,83,0.00,CLR,,0.00,0.0,WeatherDisplay:10.37,2013-10-02 01:03:00,
2013-10-01 20:08:00,67.3,62.0,29.88,SW,230,0.0,0.0,83,0.00,CLR,,0.00,0.0,WeatherDisplay:10.37,2013-10-02 01:08:00,
2013-10-01 20:13:00,67.0,61.7,29.88,SW,230,0.0,0.0,83,0.00,CLR,,0.00,0.0,WeatherDisplay:10.37,2013-10-02 01:13:00,
2013-10-01 20:18:00,66.7,61.7,29.89,SW,230,0.0,0.0,84,0.00,CLR,,0.00,0.0,WeatherDisplay:10.37,2013-10-02 01:18:00,
2013-10-01 20:23:00,66.4,61.4,29.89,SW,230,0.0,0.0,84,0.00,CLR,,0.00,0.0,WeatherDisplay:10.37,2013-10-02 01:23:00,
2013-10-01 20:28:00,66.1,61.5,29.89,SW,230,0.0,0.0,85,0.00,CLR,,0.00,0.0,WeatherDisplay:10.37,2013-10-02 01:28:00,
2013-10-01 20:33:00,65.8,61.2,29.89,SW,230,0.0,0.0,85,0.00,CLR,,0.00,0.0,WeatherDisplay:10.37,2013-10-02 01:33:00,
2013-10-01 20:38:00,65.5,60.9,29.89,SW,230,0.0,0.0,85,0.00,CLR,,0.00,0.0,WeatherDisplay:10.37,2013-10-02 01:38:00,
2013-10-01 20:43:00,65.3,60.7,29.89,SW,230,0.0,0.0,85,0.00,CLR,,0.00,0.0,WeatherDisplay:10.37,2013-10-02 01:43:00,
2013-10-01 20:48:00,65.1,60.5,29.89,SW,230,0.0,0.0,85,0.00,CLR,,0.00,0.0,WeatherDisplay:10.37,2013-10-02 01:48:00,
2013-10-01 20:53:00,64.9,60.6,29.89,SW,230,0.0,0.0,86,0.00,CLR,,0.00,0.0,WeatherDisplay:10.37,2013-10-02 01:53:00,
2013-10-01 20:58:00,64.6,60.3,29.89,SW,230,0.0,0.0,86,0.00,CLR,,0.00,0.0,WeatherDisplay:10.37,2013-10-02 01:58:00,
2013-10-01 21:03:00,64.2,59.9,29.90,SW,230,0.0,0.0,86,0.00,CLR,,0.00,0.0,WeatherDisplay:10.37,2013-10-02 02:03:00,
2013-10-01 21:08:00,63.7,59.8,29.90,SW,230,0.0,0.0,87,0.00,CLR,,0.00,0.0,WeatherDisplay:10.37,2013-10-02 02:08:00,
2013-10-01 21:13:00,63.3,59.4,29.90,SW,230,0.0,0.0,87,0.00,CLR,,0.00,0.0,WeatherDisplay:10.37,2013-10-02 02:13:00,
2013-10-01 21:18:00,63.0,59.4,29.90,SW,230,0.0,0.0,88,0.00,CLR,,0.00,0.0,WeatherDisplay:10.37,2013-10-02 02:18:00,
2013-10-01 21:23:00,62.8,59.2,29.90,SW,230,0.0,0.0,88,0.00,CLR,,0.00,0.0,WeatherDisplay:10.37,2013-10-02 02:23:00,
2013-10-01 21:28:00,62.6,59.0,29.90,SW,230,0.0,0.0,88,0.00,CLR,,0.00,0.0,WeatherDisplay:10.37,2013-10-02 02:28:00,
2013-10-01 21:33:00,62.5,59.2,29.90,SW,230,0.0,0.0,89,0.00,CLR,,0.00,0.0,WeatherDisplay:10.37,2013-10-02 02:33:00,
2013-10-01 21:38:00,62.4,59.1,29.90,SW,230,0.0,0.0,89,0.00,CLR,,0.00,0.0,WeatherDisplay:10.37,2013-10-02 02:38:00,
2013-10-01 21:43:00,62.3,59.0,29.90,SW,230,0.0,0.0,89,0.00,CLR,,0.00,0.0,WeatherDisplay:10.37,2013-10-02 02:43:00,
2013-10-01 21:48:00,62.2,58.9,29.91,SW,230,0.0,0.0,89,0.00,CLR,,0.00,0.0,WeatherDisplay:10.37,2013-10-02 02:48:00,
2013-10-01 21:53:00,62.0,58.7,29.91,SW,230,0.0,0.0,89,0.00,CLR,,0.00,0.0,WeatherDisplay:10.37,2013-10-02 02:53:00,
2013-10-01 21:58:00,61.8,58.8,29.91,SW,230,0.0,0.0,90,0.00,CLR,,0.00,0.0,WeatherDisplay:10.37,2013-10-02 02:58:00,
2013-10-01 22:03:00,61.7,58.7,29.91,SW,230,0.0,0.0,90,0.00,CLR,,0.00,0.0,WeatherDisplay:10.37,2013-10-02 03:03:00,
2013-10-01 22:08:00,61.5,58.5,29.91,SW,230,0.0,0.0,90,0.00,CLR,,0.00,0.0,WeatherDisplay:10.37,2013-10-02 03:08:00,
2013-10-01 22:13:00,61.3,58.3,29.91,SW,230,0.0,0.0,90,0.00,CLR,,0.00,0.0,WeatherDisplay:10.37,2013-10-02 03:13:00,
2013-10-01 22:18:00,61.2,58.2,29.91,SW,230,0.0,0.0,90,0.00,CLR,,0.00,0.0,WeatherDisplay:10.37,2013-10-02 03:18:00,
2013-10-01 22:23:00,61.0,58.0,29.92,SW,230,0.0,0.0,90,0.00,CLR,,0.00,0.0,WeatherDisplay:10.37,2013-10-02 03:23:00,
2013-10-01 22:28:00,60.8,57.8,29.92,SW,230,0.0,0.0,90,0.00,CLR,,0.00,0.0,WeatherDisplay:10.37,2013-10-02 03:28:00,
2013-10-01 22:33:00,60.7,58.1,29.92,SW,230,0.0,0.0,91,0.00,CLR,,0.00,0.0,WeatherDisplay:10.37,2013-10-02 03:33:00,
2013-10-01 22:38:00,60.6,58.0,29.92,SW,230,0.0,0.0,91,0.00,CLR,,0.00,0.0,WeatherDisplay:10.37,2013-10-02 03:38:00,
2013-10-01 22:43:00,60.4,57.8,29.92,SW,230,0.0,0.0,91,0.00,CLR,,0.00,0.0,WeatherDisplay:10.37,2013-10-02 03:43:00,
2013-10-01 22:48:00,60.3,57.7,29.92,SW,230,0.0,0.0,91,0.00,CLR,,0.00,0.0,WeatherDisplay:10.37,2013-10-02 03:48:00,
2013-10-01 22:53:00,60.1,57.8,29.92,SW,230,0.0,0.0,92,0.00,CLR,,0.00,0.0,WeatherDisplay:10.37,2013-10-02 03:53:00,
2013-10-01 22:58:00,60.0,57.7,29.92,SW,230,0.0,0.0,92,0.00,CLR,,0.00,0.0,WeatherDisplay:10.37,2013-10-02 03:58:00,
2013-10-01 23:01:00,59.9,57.6,29.92,SW,230,0.0,0.0,92,0.00,CLR,,0.00,0.0,WeatherDisplay:10.37,2013-10-02 04:01:00,
2013-10-01 23:02:00,59.9,57.6,29.92,SW,230,0.0,0.0,92,0.00,CLR,,0.00,0.0,WeatherDisplay:10.37,2013-10-02 04:02:00,
2013-10-01 23:07:00,59.8,57.5,29.93,SW,230,0.0,0.0,92,0.00,CLR,,0.00,0.0,WeatherDisplay:10.37,2013-10-02 04:07:00,
2013-10-01 23:12:00,59.7,57.4,29.93,SW,230,0.0,0.0,92,0.00,CLR,,0.00,0.0,WeatherDisplay:10.37,2013-10-02 04:12:00,
2013-10-01 23:17:00,59.6,57.3,29.93,SW,230,0.0,0.0,92,0.00,CLR,,0.00,0.0,WeatherDisplay:10.37,2013-10-02 04:17:00,
2013-10-01 23:22:00,59.1,56.8,29.93,SW,230,0.0,0.0,92,0.00,CLR,,0.00,0.0,WeatherDisplay:10.37,2013-10-02 04:22:00,
2013-10-01 23:27:00,59.1,56.8,29.94,SW,230,0.0,0.0,92,0.00,CLR,,0.00,0.0,WeatherDisplay:10.37,2013-10-02 04:27:00,
2013-10-01 23:32:00,59.1,56.8,29.94,SW,230,0.0,0.0,92,0.00,CLR,,0.00,0.0,WeatherDisplay:10.37,2013-10-02 04:32:00,
2013-10-01 23:37:00,59.1,56.8,29.94,SW,230,0.0,0.0,92,0.00,CLR,,0.00,0.0,WeatherDisplay:10.37,2013-10-02 04:37:00,
2013-10-01 23:42:00,59.1,57.1,29.94,SW,230,0.0,0.0,93,0.00,CLR,,0.00,0.0,WeatherDisplay:10.37,2013-10-02 04:42:00,
2013-10-01 23:47:00,59.0,57.0,29.94,SW,230,0.0,0.0,93,0.00,CLR,,0.00,0.0,WeatherDisplay:10.37,2013-10-02 04:47:00,
2013-10-01 23:52:00,58.8,56.5,29.94,SW,230,0.0,0.0,92,0.00,CLR,,0.00,0.0,WeatherDisplay:10.37,2013-10-02 04:52:00,
2013-10-01 23:57:00,58.6,56.6,29.95,SW,230,0.0,0.0,93,0.00,CLR,,0.00,0.0,WeatherDisplay:10.37,2013-10-02 04:57:00,